| time (UTC) | temp F | wind direction | speed MPH | gust MPH | rain 1hr in | rain 24hr in | rain mn in | humidity % | barometer mb |
| 20260510192015 | 68 | 275 | 6.0 | 13.0 | 0.00 | 0.00 | 0.00 | 76 | 1013.8 |
| 20260510191532 | 68 | 273 | 5.0 | 15.0 | 0.00 | 0.00 | 0.00 | 76 | 1013.9 |
| 20260510191015 | 68 | 254 | 5.0 | 15.0 | 0.00 | 0.00 | 0.00 | 76 | 1014.0 |
| 20260510190512 | 68 | 211 | 5.0 | 13.0 | 0.00 | 0.00 | 0.00 | 76 | 1013.9 |
| 20260510190031 | 68 | 271 | 4.0 | 12.0 | 0.00 | 0.00 | 0.00 | 76 | 1013.8 |
| 20260510185514 | 68 | 209 | 4.0 | 12.0 | 0.00 | 0.00 | 0.00 | 77 | 1013.8 |
| 20260510185017 | 68 | 209 | 6.0 | 12.0 | 0.00 | 0.00 | 0.00 | 76 | 1013.8 |
| 20260510184531 | 68 | 263 | 5.0 | 12.0 | 0.00 | 0.00 | 0.00 | 76 | 1013.9 |
| 20260510184015 | 68 | 236 | 4.0 | 11.0 | 0.00 | 0.00 | 0.00 | 76 | 1013.9 |
| 20260510183512 | 68 | 231 | 5.0 | 11.0 | 0.00 | 0.00 | 0.00 | 76 | 1013.9 |
| 20260510183032 | 68 | 136 | 5.0 | 13.0 | 0.00 | 0.00 | 0.00 | 76 | 1013.9 |
| 20260510182513 | 68 | 273 | 6.0 | 13.0 | 0.00 | 0.00 | 0.00 | 77 | 1013.9 |
| 20260510182015 | 68 | 205 | 4.0 | 13.0 | 0.00 | 0.00 | 0.00 | 77 | 1013.9 |
| 20260510181530 | 68 | 276 | 4.0 | 10.0 | 0.00 | 0.00 | 0.00 | 77 | 1013.8 |
| 20260510181015 | 68 | 201 | 4.0 | 10.0 | 0.00 | 0.00 | 0.00 | 76 | 1013.9 |
| 20260510180515 | 68 | 278 | 4.0 | 10.0 | 0.00 | 0.00 | 0.00 | 77 | 1013.9 |
| 20260510180034 | 68 | 234 | 4.0 | 10.0 | 0.00 | 0.00 | 0.00 | 77 | 1013.9 |
| 20260510175514 | 68 | 225 | 4.0 | 10.0 | 0.00 | 0.00 | 0.00 | 77 | 1013.8 |
| 20260510175017 | 68 | 271 | 3.0 | 11.0 | 0.00 | 0.00 | 0.00 | 77 | 1013.8 |
| 20260510174530 | 68 | 221 | 3.0 | 11.0 | 0.00 | 0.00 | 0.00 | 77 | 1013.7 |
| 20260510174014 | 68 | 255 | 5.0 | 11.0 | 0.00 | 0.00 | 0.00 | 77 | 1013.7 |
| 20260510173514 | 68 | 279 | 3.0 | 8.0 | 0.00 | 0.00 | 0.00 | 77 | 1013.7 |
| 20260510173029 | 68 | 218 | 2.0 | 7.0 | 0.00 | 0.00 | 0.00 | 77 | 1013.6 |
| 20260510172515 | 68 | 234 | 3.0 | 9.0 | 0.00 | 0.00 | 0.00 | 77 | 1013.7 |
| 20260510172015 | 68 | 261 | 3.0 | 9.0 | 0.00 | 0.00 | 0.00 | 77 | 1013.7 |
| 20260510171529 | 68 | 254 | 2.0 | 9.0 | 0.00 | 0.00 | 0.00 | 78 | 1013.6 |
| 20260510171013 | 67 | 229 | 3.0 | 8.0 | 0.00 | 0.00 | 0.00 | 78 | 1013.6 |
| 20260510170513 | 67 | 273 | 3.0 | 8.0 | 0.00 | 0.00 | 0.00 | 78 | 1013.6 |
| 20260510170029 | 67 | 257 | 3.0 | 8.0 | 0.00 | 0.00 | 0.00 | 78 | 1013.6 |
| 20260510165514 | 67 | 232 | 4.0 | 7.0 | 0.00 | 0.00 | 0.00 | 78 | 1013.5 |
| 20260510165013 | 67 | 240 | 2.0 | 7.0 | 0.00 | 0.00 | 0.00 | 78 | 1013.5 |
| 20260510164531 | 67 | 267 | 3.0 | 6.0 | 0.00 | 0.00 | 0.00 | 78 | 1013.5 |
| 20260510164014 | 67 | 236 | 2.0 | 5.0 | 0.00 | 0.00 | 0.00 | 79 | 1013.5 |
| 20260510163513 | 67 | 159 | 2.0 | 5.0 | 0.00 | 0.00 | 0.00 | 78 | 1013.6 |
| 20260510163030 | 67 | 147 | 2.0 | 5.0 | 0.00 | 0.00 | 0.00 | 79 | 1013.6 |
| 20260510162515 | 66 | 242 | 1.0 | 6.0 | 0.00 | 0.00 | 0.00 | 79 | 1013.5 |
| 20260510162017 | 66 | 216 | 2.0 | 6.0 | 0.00 | 0.00 | 0.00 | 79 | 1013.6 |
| 20260510161536 | 67 | 229 | 1.0 | 7.0 | 0.00 | 0.00 | 0.00 | 79 | 1013.6 |
| 20260510161014 | 66 | 269 | 2.0 | 7.0 | 0.00 | 0.00 | 0.00 | 80 | 1013.5 |
| 20260510160514 | 66 | 161 | 1.0 | 5.0 | 0.00 | 0.00 | 0.00 | 81 | 1013.5 |
| 20260510160043 | 65 | 169 | 1.0 | 5.0 | 0.00 | 0.00 | 0.00 | 81 | 1013.5 |
| 20260510155520 | 65 | 105 | 0.0 | 4.0 | 0.00 | 0.00 | 0.00 | 82 | 1013.5 |
| 20260510155013 | 65 | 0 | 1.0 | 4.0 | 0.00 | 0.00 | 0.00 | 82 | 1013.5 |
| 20260510154529 | 64 | 150 | 1.0 | 4.0 | 0.00 | 0.00 | 0.00 | 83 | 1013.4 |
| 20260510154014 | 64 | 113 | 0.0 | 3.0 | 0.00 | 0.00 | 0.00 | 84 | 1013.4 |
| 20260510153518 | 64 | 222 | 0.0 | 3.0 | 0.00 | 0.00 | 0.00 | 84 | 1013.4 |
| 20260510153030 | 63 | 0 | 0.0 | 3.0 | 0.00 | 0.00 | 0.00 | 85 | 1013.5 |
| 20260510152520 | 63 | 0 | 0.0 | 3.0 | 0.00 | 0.00 | 0.00 | 85 | 1013.4 |
| 20260510152015 | 63 | 155 | 1.0 | 4.0 | 0.00 | 0.00 | 0.00 | 85 | 1013.4 |
| 20260510151532 | 63 | 202 | 1.0 | 4.0 | 0.00 | 0.00 | 0.00 | 85 | 1013.4 |
| 20260510151015 | 62 | 163 | 0.0 | 4.0 | 0.00 | 0.00 | 0.00 | 86 | 1013.4 |
| 20260510150515 | 62 | 0 | 0.0 | 3.0 | 0.00 | 0.00 | 0.00 | 86 | 1013.5 |
| 20260510150032 | 62 | 346 | 0.0 | 3.0 | 0.00 | 0.00 | 0.00 | 86 | 1013.4 |
| 20260510145515 | 62 | 0 | 0.0 | 1.0 | 0.00 | 0.00 | 0.00 | 87 | 1013.4 |
| 20260510145016 | 62 | 0 | 0.0 | 2.0 | 0.00 | 0.00 | 0.00 | 87 | 1013.3 |
| 20260510144540 | 62 | 0 | 0.0 | 4.0 | 0.00 | 0.00 | 0.00 | 87 | 1013.3 |
| 20260510144016 | 62 | 0 | 0.0 | 4.0 | 0.00 | 0.00 | 0.00 | 87 | 1013.3 |
| 20260510143513 | 61 | 172 | 1.0 | 4.0 | 0.00 | 0.00 | 0.00 | 87 | 1013.2 |
| 20260510143045 | 61 | 112 | 0.0 | 3.0 | 0.00 | 0.00 | 0.00 | 88 | 1013.2 |
| 20260510142515 | 61 | 105 | 0.0 | 4.0 | 0.00 | 0.00 | 0.00 | 88 | 1013.2 |
| 20260510142013 | 61 | 0 | 0.0 | 6.0 | 0.00 | 0.00 | 0.00 | 88 | 1013.1 |
| 20260510141539 | 61 | 71 | 2.0 | 6.0 | 0.00 | 0.00 | 0.00 | 88 | 1013.2 |
| 20260510141012 | 61 | 157 | 0.0 | 3.0 | 0.00 | 0.00 | 0.00 | 88 | 1013.2 |
| 20260510140512 | 61 | 147 | 1.0 | 3.0 | 0.00 | 0.00 | 0.00 | 88 | 1013.2 |
| 20260510140030 | 61 | 51 | 1.0 | 3.0 | 0.00 | 0.00 | 0.00 | 89 | 1013.1 |
| 20260510135519 | 61 | 52 | 0.0 | 2.0 | 0.00 | 0.00 | 0.00 | 89 | 1013.0 |
| 20260510135011 | 61 | 0 | 0.0 | 3.0 | 0.00 | 0.00 | 0.00 | 89 | 1013.0 |
| 20260510134531 | 60 | 0 | 0.0 | 3.0 | 0.00 | 0.00 | 0.00 | 89 | 1012.9 |
| 20260510134010 | 60 | 101 | 1.0 | 3.0 | 0.00 | 0.00 | 0.00 | 89 | 1012.9 |
| 20260510133513 | 60 | 104 | 0.0 | 3.0 | 0.00 | 0.00 | 0.00 | 89 | 1012.8 |
| 20260510133035 | 60 | 101 | 0.0 | 3.0 | 0.00 | 0.00 | 0.00 | 89 | 1012.9 |
| 20260510132512 | 60 | 87 | 0.0 | 4.0 | 0.00 | 0.00 | 0.00 | 89 | 1012.8 |
| 20260510132013 | 60 | 0 | 0.0 | 6.0 | 0.00 | 0.00 | 0.00 | 89 | 1012.8 |
| 20260510131533 | 60 | 159 | 0.0 | 6.0 | 0.00 | 0.00 | 0.00 | 89 | 1012.8 |
| 20260510131014 | 60 | 174 | 2.0 | 5.0 | 0.00 | 0.00 | 0.00 | 89 | 1012.7 |
| 20260510130509 | 60 | 94 | 0.0 | 4.0 | 0.00 | 0.00 | 0.00 | 90 | 1012.7 |
| 20260510130031 | 60 | 106 | 1.0 | 4.0 | 0.00 | 0.00 | 0.00 | 90 | 1012.6 |
| 20260510125512 | 60 | 86 | 1.0 | 4.0 | 0.00 | 0.00 | 0.00 | 90 | 1012.6 |
| 20260510125013 | 60 | 0 | 1.0 | 4.0 | 0.00 | 0.00 | 0.00 | 90 | 1012.6 |
| 20260510124530 | 60 | 68 | 0.0 | 4.0 | 0.00 | 0.00 | 0.00 | 90 | 1012.6 |
| 20260510124013 | 60 | 73 | 0.0 | 3.0 | 0.00 | 0.00 | 0.00 | 90 | 1012.7 |
| 20260510123514 | 60 | 148 | 1.0 | 3.0 | 0.00 | 0.00 | 0.00 | 90 | 1012.7 |
| 20260510123030 | 60 | 0 | 0.0 | 2.0 | 0.00 | 0.00 | 0.00 | 90 | 1012.8 |
| 20260510122513 | 60 | 163 | 0.0 | 2.0 | 0.00 | 0.00 | 0.00 | 90 | 1012.8 |
| 20260510122010 | 60 | 0 | 0.0 | 2.0 | 0.00 | 0.00 | 0.00 | 90 | 1012.8 |
| 20260510121530 | 60 | 154 | 1.0 | 2.0 | 0.00 | 0.00 | 0.00 | 90 | 1012.8 |
| 20260510121010 | 60 | 175 | 0.0 | 2.0 | 0.00 | 0.00 | 0.00 | 90 | 1012.7 |
| 20260510120516 | 60 | 0 | 0.0 | 2.0 | 0.00 | 0.00 | 0.00 | 90 | 1012.7 |
| 20260510120029 | 60 | 0 | 0.0 | 4.0 | 0.00 | 0.00 | 0.00 | 90 | 1012.7 |
| 20260510115509 | 60 | 145 | 1.0 | 4.0 | 0.00 | 0.00 | 0.00 | 90 | 1012.8 |
| 20260510115012 | 60 | 175 | 0.0 | 4.0 | 0.00 | 0.00 | 0.00 | 91 | 1012.8 |
| 20260510114530 | 60 | 0 | 1.0 | 4.0 | 0.00 | 0.00 | 0.00 | 91 | 1012.7 |
| 20260510114010 | 60 | 155 | 1.0 | 4.0 | 0.00 | 0.00 | 0.00 | 91 | 1012.7 |
| 20260510113513 | 60 | 151 | 0.0 | 4.0 | 0.00 | 0.00 | 0.00 | 91 | 1012.6 |
| 20260510113031 | 60 | 127 | 1.0 | 4.0 | 0.00 | 0.00 | 0.00 | 91 | 1012.6 |
| 20260510112513 | 60 | 0 | 1.0 | 4.0 | 0.00 | 0.00 | 0.00 | 91 | 1012.7 |
| 20260510112013 | 60 | 78 | 2.0 | 4.0 | 0.00 | 0.00 | 0.00 | 91 | 1012.6 |
| 20260510111528 | 60 | 92 | 2.0 | 6.0 | 0.00 | 0.00 | 0.00 | 91 | 1012.7 |
| 20260510111013 | 60 | 117 | 2.0 | 7.0 | 0.00 | 0.00 | 0.00 | 92 | 1012.6 |
| 20260510110513 | 60 | 102 | 2.0 | 7.0 | 0.00 | 0.00 | 0.00 | 92 | 1012.6 |
| 20260510110030 | 60 | 106 | 3.0 | 7.0 | 0.00 | 0.00 | 0.00 | 92 | 1012.5 |
| 20260510105514 | 60 | 100 | 3.0 | 7.0 | 0.00 | 0.00 | 0.00 | 91 | 1012.5 |
| 20260510105013 | 60 | 104 | 3.0 | 7.0 | 0.00 | 0.00 | 0.00 | 91 | 1012.6 |
| 20260510104540 | 60 | 111 | 2.0 | 6.0 | 0.00 | 0.00 | 0.00 | 91 | 1012.6 |
| 20260510104013 | 60 | 86 | 1.0 | 5.0 | 0.00 | 0.00 | 0.00 | 91 | 1012.6 |
| 20260510103513 | 61 | 104 | 2.0 | 6.0 | 0.00 | 0.00 | 0.00 | 91 | 1012.6 |
| 20260510103031 | 61 | 101 | 2.0 | 6.0 | 0.00 | 0.00 | 0.00 | 91 | 1012.6 |
| 20260510102513 | 61 | 121 | 2.0 | 4.0 | 0.00 | 0.00 | 0.00 | 91 | 1012.6 |
| 20260510102018 | 61 | 117 | 2.0 | 4.0 | 0.00 | 0.00 | 0.00 | 91 | 1012.5 |
| 20260510101534 | 61 | 128 | 0.0 | 3.0 | 0.00 | 0.00 | 0.00 | 91 | 1012.5 |
| 20260510101015 | 61 | 113 | 1.0 | 3.0 | 0.00 | 0.00 | 0.00 | 91 | 1012.7 |
| 20260510100514 | 61 | 113 | 0.0 | 3.0 | 0.00 | 0.00 | 0.00 | 91 | 1012.6 |
| 20260510100030 | 61 | 108 | 1.0 | 3.0 | 0.00 | 0.00 | 0.00 | 91 | 1012.7 |
| 20260510095514 | 61 | 101 | 1.0 | 3.0 | 0.00 | 0.00 | 0.00 | 91 | 1012.8 |
| 20260510095013 | 61 | 0 | 0.0 | 3.0 | 0.00 | 0.00 | 0.00 | 91 | 1012.8 |
| 20260510094529 | 61 | 152 | 0.0 | 2.0 | 0.00 | 0.00 | 0.00 | 91 | 1012.8 |
| 20260510094013 | 61 | 152 | 0.0 | 3.0 | 0.00 | 0.00 | 0.00 | 91 | 1012.8 |
| 20260510093514 | 61 | 0 | 1.0 | 4.0 | 0.00 | 0.00 | 0.00 | 91 | 1012.8 |
| 20260510093033 | 61 | 0 | 1.0 | 4.0 | 0.00 | 0.00 | 0.00 | 91 | 1012.8 |
| 20260510092515 | 61 | 157 | 1.0 | 4.0 | 0.00 | 0.00 | 0.00 | 91 | 1012.8 |
| 20260510092014 | 61 | 150 | 1.0 | 3.0 | 0.00 | 0.00 | 0.00 | 91 | 1012.9 |
| 20260510091531 | 61 | 0 | 0.0 | 3.0 | 0.00 | 0.00 | 0.00 | 91 | 1012.8 |
| 20260510091013 | 61 | 96 | 0.0 | 4.0 | 0.00 | 0.00 | 0.00 | 91 | 1012.9 |
| 20260510090514 | 61 | 76 | 1.0 | 4.0 | 0.00 | 0.00 | 0.00 | 91 | 1012.8 |
| 20260510090031 | 61 | 94 | 1.0 | 3.0 | 0.00 | 0.00 | 0.00 | 91 | 1012.8 |
| 20260510085513 | 61 | 0 | 0.0 | 2.0 | 0.00 | 0.00 | 0.00 | 91 | 1012.9 |
| 20260510085013 | 61 | 0 | 0.0 | 3.0 | 0.00 | 0.00 | 0.00 | 91 | 1013.0 |
| 20260510084532 | 61 | 0 | 0.0 | 3.0 | 0.00 | 0.00 | 0.00 | 91 | 1012.9 |
| 20260510084015 | 61 | 20 | 0.0 | 2.0 | 0.00 | 0.00 | 0.00 | 91 | 1012.8 |
| 20260510083518 | 61 | 0 | 0.0 | 2.0 | 0.00 | 0.00 | 0.00 | 92 | 1012.9 |
| 20260510083037 | 61 | 24 | 0.0 | 2.0 | 0.00 | 0.00 | 0.00 | 92 | 1012.9 |
| 20260510082512 | 61 | 0 | 0.0 | 0.0 | 0.00 | 0.00 | 0.00 | 92 | 1012.8 |
| 20260510082013 | 61 | 0 | 0.0 | 2.0 | 0.00 | 0.00 | 0.00 | 92 | 1012.9 |
| 20260510081541 | 61 | 0 | 0.0 | 2.0 | 0.00 | 0.00 | 0.00 | 92 | 1013.0 |
| 20260510081014 | 61 | 46 | 0.0 | 4.0 | 0.00 | 0.00 | 0.00 | 92 | 1013.0 |
| 20260510080515 | 61 | 61 | 0.0 | 4.0 | 0.00 | 0.00 | 0.00 | 92 | 1013.1 |
| 20260510080029 | 60 | 58 | 1.0 | 4.0 | 0.00 | 0.00 | 0.00 | 92 | 1013.1 |
| 20260510075513 | 60 | 67 | 2.0 | 4.0 | 0.00 | 0.00 | 0.00 | 92 | 1013.2 |
| 20260510075013 | 61 | 80 | 0.0 | 3.0 | 0.00 | 0.00 | 0.00 | 92 | 1013.2 |
| 20260510074529 | 60 | 96 | 1.0 | 5.0 | 0.00 | 0.00 | 0.00 | 92 | 1013.2 |
| 20260510074016 | 60 | 71 | 2.0 | 5.0 | 0.00 | 0.00 | 0.00 | 92 | 1013.4 |
| 20260510073515 | 60 | 92 | 2.0 | 4.0 | 0.00 | 0.00 | 0.00 | 92 | 1013.4 |
| 20260510073028 | 60 | 44 | 1.0 | 4.0 | 0.00 | 0.00 | 0.00 | 92 | 1013.4 |
| 20260510072521 | 60 | 79 | 1.0 | 4.0 | 0.00 | 0.00 | 0.00 | 93 | 1013.4 |
| 20260510072012 | 60 | 100 | 1.0 | 5.0 | 0.00 | 0.00 | 0.00 | 93 | 1013.4 |
| 20260510071530 | 60 | 180 | 2.0 | 5.0 | 0.00 | 0.00 | 0.00 | 93 | 1013.3 |
| 20260510071011 | 60 | 127 | 1.0 | 5.0 | 0.00 | 0.00 | 0.00 | 93 | 1013.4 |
| 20260510070513 | 60 | 136 | 0.0 | 4.0 | 0.00 | 0.00 | 0.00 | 93 | 1013.4 |
| 20260510070031 | 60 | 136 | 1.0 | 4.0 | 0.00 | 0.00 | 0.00 | 93 | 1013.5 |
| 20260510065514 | 60 | 105 | 1.0 | 3.0 | 0.00 | 0.00 | 0.00 | 94 | 1013.4 |
| 20260510065014 | 60 | 154 | 0.0 | 4.0 | 0.00 | 0.00 | 0.00 | 94 | 1013.2 |
| 20260510064545 | 60 | 202 | 0.0 | 4.0 | 0.00 | 0.00 | 0.00 | 94 | 1013.3 |
| 20260510064013 | 60 | 0 | 1.0 | 3.0 | 0.00 | 0.00 | 0.00 | 94 | 1013.4 |
| 20260510063513 | 60 | 0 | 0.0 | 2.0 | 0.00 | 0.00 | 0.00 | 94 | 1013.3 |
| 20260510063040 | 59 | 0 | 0.0 | 2.0 | 0.00 | 0.00 | 0.00 | 94 | 1013.3 |
| 20260510062512 | 59 | 0 | 0.0 | 2.0 | 0.00 | 0.00 | 0.00 | 94 | 1013.4 |
| 20260510062020 | 59 | 0 | 0.0 | 2.0 | 0.00 | 0.00 | 0.00 | 94 | 1013.4 |
| 20260510061533 | 59 | 0 | 0.0 | 2.0 | 0.00 | 0.00 | 0.00 | 94 | 1013.5 |
| 20260510061013 | 59 | 0 | 0.0 | 3.0 | 0.00 | 0.00 | 0.00 | 94 | 1013.5 |
| 20260510060510 | 59 | 0 | 0.0 | 3.0 | 0.00 | 0.00 | 0.00 | 94 | 1013.5 |
| 20260510060042 | 59 | 242 | 0.0 | 4.0 | 0.00 | 0.00 | 0.00 | 94 | 1013.5 |
| 20260510055513 | 59 | 259 | 1.0 | 4.0 | 0.00 | 0.00 | 0.00 | 94 | 1013.5 |
| 20260510055013 | 59 | 0 | 0.0 | 3.0 | 0.00 | 0.00 | 0.00 | 94 | 1013.5 |
| 20260510054530 | 59 | 297 | 1.0 | 3.0 | 0.00 | 0.00 | 0.00 | 94 | 1013.6 |
| 20260510054016 | 59 | 269 | 0.0 | 4.0 | 0.00 | 0.00 | 0.00 | 94 | 1013.6 |
| 20260510053511 | 59 | 267 | 1.0 | 4.0 | 0.00 | 0.00 | 0.00 | 94 | 1013.6 |
| 20260510053040 | 59 | 250 | 1.0 | 4.0 | 0.00 | 0.00 | 0.00 | 94 | 1013.6 |
| 20260510052512 | 59 | 266 | 2.0 | 4.0 | 0.00 | 0.00 | 0.00 | 94 | 1013.6 |
| 20260510052015 | 59 | 217 | 1.0 | 6.0 | 0.00 | 0.00 | 0.00 | 94 | 1013.5 |
| 20260510051530 | 59 | 263 | 1.0 | 7.0 | 0.00 | 0.00 | 0.00 | 94 | 1013.5 |
| 20260510051012 | 59 | 269 | 1.0 | 7.0 | 0.00 | 0.00 | 0.00 | 93 | 1013.5 |
| 20260510050510 | 59 | 278 | 3.0 | 7.0 | 0.00 | 0.00 | 0.00 | 93 | 1013.5 |
| 20260510050030 | 59 | 252 | 2.0 | 7.0 | 0.00 | 0.00 | 0.00 | 93 | 1013.5 |
| 20260510045513 | 59 | 0 | 2.0 | 6.0 | 0.00 | 0.00 | 0.00 | 93 | 1013.6 |
| 20260510045015 | 59 | 271 | 2.0 | 8.0 | 0.00 | 0.00 | 0.00 | 93 | 1013.5 |
| 20260510044544 | 59 | 227 | 2.0 | 8.0 | 0.00 | 0.00 | 0.00 | 93 | 1013.5 |
| 20260510044013 | 59 | 211 | 1.0 | 7.0 | 0.00 | 0.00 | 0.00 | 93 | 1013.4 |
| 20260510043513 | 59 | 258 | 3.0 | 7.0 | 0.00 | 0.00 | 0.00 | 93 | 1013.5 |
| 20260510043034 | 59 | 275 | 2.0 | 7.0 | 0.00 | 0.00 | 0.00 | 93 | 1013.5 |
| 20260510042512 | 59 | 265 | 3.0 | 7.0 | 0.00 | 0.00 | 0.00 | 93 | 1013.4 |
| 20260510042011 | 59 | 0 | 1.0 | 7.0 | 0.00 | 0.00 | 0.00 | 93 | 1013.4 |
| 20260510041533 | 59 | 267 | 2.0 | 7.0 | 0.00 | 0.00 | 0.00 | 93 | 1013.3 |
| 20260510041014 | 59 | 261 | 4.0 | 8.0 | 0.00 | 0.00 | 0.00 | 93 | 1013.2 |
| 20260510040516 | 60 | 284 | 3.0 | 9.0 | 0.00 | 0.00 | 0.00 | 92 | 1013.1 |
| 20260510040040 | 60 | 271 | 2.0 | 9.0 | 0.00 | 0.00 | 0.00 | 92 | 1013.1 |
| 20260510035513 | 60 | 255 | 2.0 | 7.0 | 0.00 | 0.00 | 0.00 | 92 | 1013.1 |
| 20260510035012 | 60 | 242 | 2.0 | 7.0 | 0.00 | 0.00 | 0.00 | 92 | 1013.0 |
| 20260510034534 | 60 | 248 | 2.0 | 8.0 | 0.00 | 0.00 | 0.00 | 92 | 1013.0 |
| 20260510034011 | 60 | 238 | 3.0 | 9.0 | 0.00 | 0.00 | 0.00 | 92 | 1012.9 |
| 20260510033511 | 60 | 257 | 5.0 | 11.0 | 0.00 | 0.00 | 0.00 | 92 | 1012.8 |
| 20260510033048 | 60 | 267 | 3.0 | 11.0 | 0.00 | 0.00 | 0.00 | 92 | 1012.7 |
| 20260510032510 | 60 | 239 | 3.0 | 10.0 | 0.00 | 0.00 | 0.00 | 92 | 1012.7 |
| 20260510032018 | 60 | 232 | 3.0 | 10.0 | 0.00 | 0.00 | 0.00 | 92 | 1012.7 |
| 20260510031528 | 60 | 262 | 2.0 | 8.0 | 0.00 | 0.00 | 0.00 | 92 | 1012.6 |
| 20260510031013 | 60 | 222 | 3.0 | 10.0 | 0.00 | 0.00 | 0.00 | 91 | 1012.6 |
| 20260510030519 | 60 | 221 | 3.0 | 11.0 | 0.00 | 0.00 | 0.00 | 91 | 1012.5 |
| 20260510030042 | 60 | 273 | 4.0 | 11.0 | 0.00 | 0.00 | 0.00 | 91 | 1012.4 |
| 20260510025512 | 61 | 229 | 4.0 | 11.0 | 0.00 | 0.00 | 0.00 | 91 | 1012.4 |
| 20260510025010 | 60 | 222 | 3.0 | 9.0 | 0.00 | 0.00 | 0.00 | 91 | 1012.4 |
| 20260510024528 | 61 | 222 | 3.0 | 9.0 | 0.00 | 0.00 | 0.00 | 91 | 1012.3 |
| 20260510024013 | 61 | 260 | 3.0 | 9.0 | 0.00 | 0.00 | 0.00 | 91 | 1012.2 |
| 20260510023514 | 61 | 215 | 4.0 | 9.0 | 0.00 | 0.00 | 0.00 | 91 | 1012.2 |
| 20260510023030 | 61 | 260 | 4.0 | 9.0 | 0.00 | 0.00 | 0.00 | 90 | 1012.2 |
| 20260510022513 | 61 | 258 | 3.0 | 9.0 | 0.00 | 0.00 | 0.00 | 90 | 1012.1 |
| 20260510022013 | 61 | 253 | 2.0 | 13.0 | 0.00 | 0.00 | 0.00 | 90 | 1012.2 |
| 20260510021532 | 61 | 219 | 4.0 | 13.0 | 0.00 | 0.00 | 0.00 | 90 | 1012.1 |
| 20260510021011 | 61 | 232 | 4.0 | 10.0 | 0.00 | 0.00 | 0.00 | 90 | 1012.1 |
| 20260510020510 | 61 | 279 | 4.0 | 11.0 | 0.00 | 0.00 | 0.00 | 90 | 1012.1 |
| 20260510020032 | 61 | 296 | 4.0 | 12.0 | 0.00 | 0.00 | 0.00 | 90 | 1012.0 |
| 20260510015514 | 61 | 285 | 5.0 | 12.0 | 0.00 | 0.00 | 0.00 | 89 | 1011.9 |
| 20260510015014 | 62 | 225 | 4.0 | 13.0 | 0.00 | 0.00 | 0.00 | 89 | 1011.9 |
| 20260510014538 | 62 | 246 | 5.0 | 13.0 | 0.00 | 0.00 | 0.00 | 89 | 1011.9 |
| 20260510014013 | 62 | 261 | 5.0 | 13.0 | 0.00 | 0.00 | 0.00 | 88 | 1011.8 |
| 20260510013510 | 62 | 281 | 4.0 | 11.0 | 0.00 | 0.00 | 0.00 | 88 | 1011.7 |
| 20260510013031 | 62 | 254 | 4.0 | 11.0 | 0.00 | 0.00 | 0.00 | 87 | 1011.8 |
| 20260510012509 | 62 | 269 | 4.0 | 11.0 | 0.00 | 0.00 | 0.00 | 87 | 1011.9 |
| 20260510012010 | 62 | 257 | 5.0 | 11.0 | 0.00 | 0.00 | 0.00 | 87 | 1011.9 |
| 20260510011531 | 63 | 283 | 4.0 | 13.0 | 0.00 | 0.00 | 0.00 | 87 | 1011.8 |
| 20260510011014 | 63 | 205 | 4.0 | 13.0 | 0.00 | 0.00 | 0.00 | 87 | 1011.8 |
| 20260510010513 | 63 | 240 | 3.0 | 10.0 | 0.00 | 0.00 | 0.00 | 86 | 1011.7 |
| 20260510010031 | 63 | 302 | 3.0 | 10.0 | 0.00 | 0.00 | 0.00 | 86 | 1011.7 |
| 20260510005513 | 63 | 246 | 5.0 | 11.0 | 0.00 | 0.00 | 0.00 | 86 | 1011.6 |
| 20260510005013 | 63 | 225 | 4.0 | 15.0 | 0.00 | 0.00 | 0.00 | 86 | 1011.6 |
| 20260510004534 | 63 | 246 | 7.0 | 15.0 | 0.00 | 0.00 | 0.00 | 86 | 1011.7 |
| 20260510004016 | 64 | 270 | 5.0 | 14.0 | 0.00 | 0.00 | 0.00 | 85 | 1011.6 |
| 20260510003513 | 64 | 263 | 4.0 | 14.0 | 0.00 | 0.00 | 0.00 | 85 | 1011.7 |
| 20260510003030 | 64 | 267 | 5.0 | 12.0 | 0.00 | 0.00 | 0.00 | 85 | 1011.7 |
| 20260510002512 | 64 | 201 | 4.0 | 12.0 | 0.00 | 0.00 | 0.00 | 85 | 1011.8 |
| 20260510002012 | 64 | 235 | 4.0 | 12.0 | 0.00 | 0.00 | 0.00 | 85 | 1011.9 |
| 20260510001532 | 64 | 258 | 6.0 | 11.0 | 0.00 | 0.00 | 0.00 | 85 | 1011.8 |
| 20260510001014 | 64 | 267 | 5.0 | 14.0 | 0.00 | 0.00 | 0.00 | 84 | 1011.9 |
| 20260510000510 | 65 | 223 | 4.0 | 15.0 | 0.00 | 0.00 | 0.00 | 84 | 1012.0 |
| 20260510000029 | 65 | 224 | 5.0 | 15.0 | 0.00 | 0.00 | 0.00 | 83 | 1011.9 |
| 20260509235513 | 66 | 279 | 7.0 | 14.0 | 0.00 | 0.00 | 0.00 | 81 | 1011.9 |
| 20260509235015 | 66 | 276 | 4.0 | 14.0 | 0.00 | 0.00 | 0.00 | 81 | 1011.8 |
| 20260509234542 | 66 | 278 | 6.0 | 14.0 | 0.00 | 0.00 | 0.00 | 81 | 1011.8 |
| 20260509234013 | 66 | 264 | 4.0 | 14.0 | 0.00 | 0.00 | 0.00 | 82 | 1011.8 |
| 20260509233514 | 67 | 284 | 5.0 | 14.0 | 0.00 | 0.00 | 0.00 | 80 | 1011.8 |
| 20260509233030 | 67 | 219 | 4.0 | 13.0 | 0.00 | 0.00 | 0.00 | 80 | 1011.9 |
| 20260509232514 | 67 | 231 | 6.0 | 16.0 | 0.00 | 0.00 | 0.00 | 80 | 1012.0 |
| 20260509232011 | 67 | 281 | 7.0 | 16.0 | 0.00 | 0.00 | 0.00 | 80 | 1012.0 |
| 20260509231529 | 67 | 219 | 6.0 | 16.0 | 0.00 | 0.00 | 0.00 | 80 | 1012.0 |
| 20260509231009 | 67 | 309 | 5.0 | 14.0 | 0.00 | 0.00 | 0.00 | 80 | 1011.9 |
| 20260509230513 | 67 | 281 | 5.0 | 14.0 | 0.00 | 0.00 | 0.00 | 80 | 1011.8 |
| 20260509230034 | 67 | 220 | 6.0 | 14.0 | 0.00 | 0.00 | 0.00 | 79 | 1011.9 |
| 20260509225513 | 67 | 273 | 5.0 | 14.0 | 0.00 | 0.00 | 0.00 | 80 | 1011.9 |
| 20260509225012 | 66 | 350 | 6.0 | 15.0 | 0.00 | 0.00 | 0.00 | 80 | 1011.9 |
| 20260509224532 | 67 | 290 | 7.0 | 15.0 | 0.00 | 0.00 | 0.00 | 80 | 1012.0 |
| 20260509224013 | 67 | 244 | 7.0 | 14.0 | 0.00 | 0.00 | 0.00 | 79 | 1012.1 |
| 20260509223513 | 67 | 284 | 5.0 | 14.0 | 0.00 | 0.00 | 0.00 | 80 | 1012.1 |
| 20260509223033 | 67 | 281 | 6.0 | 14.0 | 0.00 | 0.00 | 0.00 | 80 | 1012.3 |
| 20260509222515 | 67 | 255 | 6.0 | 15.0 | 0.00 | 0.00 | 0.00 | 79 | 1012.3 |
| 20260509222013 | 67 | 273 | 8.0 | 15.0 | 0.00 | 0.00 | 0.00 | 79 | 1012.4 |
| 20260509221535 | 67 | 286 | 6.0 | 14.0 | 0.00 | 0.00 | 0.00 | 79 | 1012.5 |
| 20260509221013 | 68 | 262 | 5.0 | 15.0 | 0.00 | 0.00 | 0.00 | 78 | 1012.5 |
| 20260509220511 | 68 | 278 | 6.0 | 15.0 | 0.00 | 0.00 | 0.00 | 79 | 1012.6 |
| 20260509220028 | 68 | 207 | 4.0 | 14.0 | 0.00 | 0.00 | 0.00 | 79 | 1012.7 |
| 20260509215514 | 68 | 249 | 7.0 | 14.0 | 0.00 | 0.00 | 0.00 | 78 | 1012.6 |
| 20260509215009 | 68 | 246 | 4.0 | 14.0 | 0.00 | 0.00 | 0.00 | 78 | 1012.7 |
| 20260509214532 | 68 | 254 | 5.0 | 13.0 | 0.00 | 0.00 | 0.00 | 79 | 1012.7 |
| 20260509214013 | 68 | 246 | 5.0 | 13.0 | 0.00 | 0.00 | 0.00 | 78 | 1012.7 |
| 20260509213513 | 69 | 289 | 4.0 | 14.0 | 0.00 | 0.00 | 0.00 | 78 | 1012.9 |
| 20260509213033 | 68 | 239 | 6.0 | 15.0 | 0.00 | 0.00 | 0.00 | 79 | 1012.9 |
| 20260509212514 | 68 | 269 | 7.0 | 15.0 | 0.00 | 0.00 | 0.00 | 79 | 1013.0 |
| 20260509212016 | 68 | 227 | 5.0 | 12.0 | 0.00 | 0.00 | 0.00 | 78 | 1013.0 |
| 20260509211531 | 69 | 273 | 5.0 | 12.0 | 0.00 | 0.00 | 0.00 | 78 | 1013.0 |
| 20260509211015 | 69 | 271 | 3.0 | 15.0 | 0.00 | 0.00 | 0.00 | 79 | 1013.1 |
| 20260509210515 | 69 | 259 | 6.0 | 15.0 | 0.00 | 0.00 | 0.00 | 78 | 1013.2 |
| 20260509210034 | 69 | 260 | 6.0 | 13.0 | 0.00 | 0.00 | 0.00 | 77 | 1013.1 |
| 20260509205513 | 69 | 217 | 5.0 | 13.0 | 0.00 | 0.00 | 0.00 | 77 | 1013.1 |
| 20260509205014 | 69 | 218 | 5.0 | 12.0 | 0.00 | 0.00 | 0.00 | 77 | 1013.1 |
| 20260509204528 | 69 | 256 | 6.0 | 13.0 | 0.00 | 0.00 | 0.00 | 78 | 1013.1 |
| 20260509204010 | 69 | 275 | 8.0 | 14.0 | 0.00 | 0.00 | 0.00 | 77 | 1013.1 |
| 20260509203513 | 70 | 228 | 5.0 | 14.0 | 0.00 | 0.00 | 0.00 | 77 | 1013.1 |
| 20260509203030 | 70 | 234 | 5.0 | 14.0 | 0.00 | 0.00 | 0.00 | 77 | 1013.1 |
| 20260509202513 | 70 | 258 | 5.0 | 14.0 | 0.00 | 0.00 | 0.00 | 76 | 1013.1 |
| 20260509202013 | 70 | 247 | 5.0 | 11.0 | 0.00 | 0.00 | 0.00 | 76 | 1013.1 |
| 20260509201530 | 70 | 237 | 5.0 | 13.0 | 0.00 | 0.00 | 0.00 | 77 | 1013.1 |
| 20260509201013 | 70 | 267 | 6.0 | 13.0 | 0.00 | 0.00 | 0.00 | 77 | 1013.1 |
| 20260509200513 | 70 | 214 | 4.0 | 12.0 | 0.00 | 0.00 | 0.00 | 77 | 1013.2 |
| 20260509200032 | 69 | 277 | 5.0 | 12.0 | 0.00 | 0.00 | 0.00 | 77 | 1013.2 |
| 20260509195516 | 69 | 261 | 4.0 | 12.0 | 0.00 | 0.00 | 0.00 | 78 | 1013.3 |
| 20260509195013 | 69 | 236 | 4.0 | 12.0 | 0.00 | 0.00 | 0.00 | 78 | 1013.4 |
| 20260509194533 | 69 | 236 | 5.0 | 12.0 | 0.00 | 0.00 | 0.00 | 78 | 1013.4 |
| 20260509194013 | 69 | 230 | 4.0 | 11.0 | 0.00 | 0.00 | 0.00 | 77 | 1013.5 |
| 20260509193513 | 69 | 232 | 3.0 | 12.0 | 0.00 | 0.00 | 0.00 | 78 | 1013.5 |
| 20260509193036 | 68 | 262 | 5.0 | 12.0 | 0.00 | 0.00 | 0.00 | 79 | 1013.5 |
| 20260509192513 | 68 | 196 | 3.0 | 12.0 | 0.00 | 0.00 | 0.00 | 79 | 1013.6 |